www.pogodaiklimat.ru

Погода и климат >> Архив погоды >> Бангладеш >> Faridpur


ПОГОДА в Faridpur

  • Прогноз погоды в Faridpur
  • Монитор погоды в Faridpur
  • Климат города

АРХИВ ПОГОДЫ в Faridpur

Время (UTC), дата Ветер
(напр.,м/с)
 
Видим.   Явления Облачность Т
(С)
Тd
(С)
f
(%)
Тe
(С)
Тes
(С)
Комфортность P
(гПа)
Po
(гПа)
Тmin
(С)
Tmax
(С)
R
(мм)
R24
(мм)
S
(см)
03 11.10 В 1 6000 м в посл. час дождь 10/6 300 м
[Frnb As op]
+25.0 +24.0 94 +34 +35 очень
душно
1011.4 1010.5 +23.7
06 11.10 В 1 5000 м слабый дождь 10/6 300 м
[Frnb As op]
+25.8 +24.0 90 +36 +37 очень
душно
1011.1 1010.2 11
06 12.10 ЮВ 1 6000 м {дождь} 10/4 480 м
[Sc As op]
+26.4 +24.0 87 +37 +39 очень
душно
1012.4 1011.5 1
09 12.10 В 1 6000 м 10/5 300 м
[St As op]
+26.6 +25.0 91 +38 +39 очень
душно
1009.6 1008.6
12 12.10 СВ 1 6000 м 10/4 480 м
[Sc As op]
+25.3 +24.0 93 +35 +35 очень
душно
1010.2 1009.3 +26.8
15 13.10 С 1 5000 м слабый дождь 10/6 300 м
[Frnb As op]
+23.2 +22.0 93 +32 +32 очень
душно
1009.0 1008.1 17
18 13.10 С 1 6000 м {дождь} 10/4 480 м
[Sc As op]
+23.4 +22.0 92 +32 +32 очень
душно
1008.7 1007.8 17
21 13.10 СЗ 1 6000 м 10/4 480 м
[Sc As op]
+23.2 +22.0 93 +32 +32 очень
душно
1008.9 1008.0
00 14.10 СЗ 1 6000 м 10/5 480 м
[Sc As op]
+23.0 +22.0 94 +31 +31 очень
душно
1010.0 1009.1
03 14.10 В 1 6000 м 10/4 480 м
[Sc As op]
+24.2 +22.0 88 +31 +32 очень
душно
1012.8 1011.9 +22.0
15 14.10 штиль 0 5000 м мгла ясно +24.6 +24.0 96 +34 +34 очень
душно
1011.0 1010.1
18 14.10 штиль 0 5000 м мгла ясно +23.7 +23.0 96 +31 +31 очень
душно
1010.8 1009.9
21 14.10 штиль 0 5000 м мгла ясно +23.2 +22.0 93 +32 +32 очень
душно
1011.5 1010.6
00 15.10 штиль 0 5000 м мгла 3/3 540 м
[Sc diur, vesp]
+22.7 +22.7 100 +31 +31 очень
душно
1012.2 1011.3
03 15.10 штиль 0 5000 м мгла ясно +27.1 +24.0 83 +37 +47 очень
душно
1014.6 1013.7 +21.8
06 15.10 Ю 1 6000 м 4/4 540 м
[Sc diur, vesp]
+30.4 +23.0 65 +41 +51 опасность
перегрева
1013.7 1012.8
09 15.10 З 1 7000 м 4/4 540 м
[Sc diur, vesp]
+32.4 +21.0 51 +40 +45 очень
душно
1010.7 1009.8
12 15.10 штиль 0 5000 м мгла ясно +27.7 +25.0 85 +40 +40 очень
душно
1010.5 1009.6 +32.6
15 15.10 штиль 0 5000 м мгла 4/4 540 м
[Sc diur, vesp]
+25.6 +25.0 96 +36 +36 очень
душно
1012.1 1011.2
18 15.10 штиль 0 6000 м мгла 8/3 540 м
[Sc diur, vesp Ac lent]
+25.5 +24.0 91 +35 +35 очень
душно
1012.5 1011.6
00 16.10 штиль 0 5000 м мгла ясно +23.0 +22.0 94 +31 +31 очень
душно
1011.4 1010.5
03 16.10 штиль 0 5000 м мгла ясно +28.5 +23.0 72 +38 +47 очень
душно
1014.3 1013.4 +22.2
06 16.10 штиль 0 6000 м 4/4 540 м
[Sc diur, vesp]
+31.2 +19.0 48 +36 +49 очень
душно
1013.3 1012.4
09 16.10 штиль 0 6000 м 5/4 540 м
[Sc diur, vesp]
+32.5 +20.0 48 +39 +44 очень
душно
1010.5 1009.6
12 16.10 штиль 0 6000 м 3/0
[Ac trans]
+28.5 +24.0 77 +40 +40 очень
душно
1010.4 1009.5 +32.7
15 16.10 штиль 0 5000 м мгла 3/3 540 м
[Sc]
+25.2 +23.0 88 +34 +34 очень
душно
1012.2 1011.3
18 16.10 штиль 0 5000 м мгла 3/3 540 м
[Sc]
+24.0 +22.0 89 +31 +31 очень
душно
1012.3 1011.4
00 17.10 штиль 0 5000 м мгла ясно +22.2 +21.0 93 +29 +29 очень
душно
1011.6 1010.6
03 17.10 штиль 0 5000 м мгла ясно +27.8 +20.0 63 +34 +43 очень
душно
1013.6 1012.7 +21.4
06 17.10 З 1 6000 м 3/3 540 м
[Sc]
+31.4 +16.0 40 +34 +47 душно 1011.5 1010.6
09 17.10 штиль 0 6000 м 5/1 540 м
[Sc Ac trans]
+31.4 +17.0 42 +35 +41 очень
душно
1009.8 1008.9
12 17.10 штиль 0 5000 м мгла ясно +27.5 +23.0 76 +37 +37 очень
душно
1008.5 1007.6 +32.4
15 17.10 штиль 0 5000 м мгла ясно +24.5 +23.0 91 +32 +32 очень
душно
1010.5 1009.6
18 17.10 штиль 0 5000 м мгла ясно +23.3 +22.0 92 +32 +32 очень
душно
1010.1 1009.2

 

Местоположение метеостанции Faridpur (Бангладеш): широта 23.60 долгота 89.85 высота над уровнем моря 8 м.

В архиве по умолчанию представлена погода в Faridpur за последнюю неделю. Архивные данные за месяц целиком и за предыдущие месяцы, начиная с января 2011 года, Вы можете получить, выбрав интересующий диапазон дат из раскрывающегося списка и нажав кнопку "Ввод!".


*Определитесь, кто Вы:
робот инопланетянин человек

Внимание! Время в таблицах - всемирное. Для получения местного времени необходимо прибавить поправку, которая в Faridpur равна 6.5 ч.

Смотрите также архив погоды в соседних городах и на ближайших метеорологических станциях:

Погода в Dhaka (Бангладеш) (57 км)
Погода в Madaripur (Бангладеш) (59 км)
Погода в Gopalganj Sadar (Бангладеш) (66 км)
Погода в Kumarkhali (Бангладеш) (72 км)
Погода в Tangail (Бангладеш) (73 км)
Погода в Jessore (Бангладеш) (84 км)
Погода в Chandpur (Бангладеш) (94 км)
Погода в Tarash (Бангладеш) (97 км)
Погода в Khulna (Бангладеш) (97 км)
Погода в Ishurdi (Бангладеш) (100 км)

Пояснения к столбцам:

Ветер - указаны скорость ветра в м/с - средняя за 10 мин, порывы в срок и между сроками (в фигурных скобках) и направление, откуда дует ветер: С - северный, СВ - северо-восточный, В - восточный, ЮВ - юго-восточный, Ю - южный, ЮЗ - юго-западный, З - западный, СЗ - северо-западный.
Видимость - горизонтальная дальность видимости в метрах или километрах. При видимости от 1 до 10 км при отсутствии осадков обычно наблюдается дымка, при ухудшении видимости до 1 км и менее - туман. В сухую погоду видимость может ухудшаться дымом, пылью или мглою.
Явления - указаны атмосферные явления, наблюдавшиеся в срок или в последний час перед сроком; фигурными скобками обозначены явления, наблюдавшиеся между сроками (за 1-3 часа до срока); квадратными скобками обозначены град или гололедные отложения с указанием их диаметра в мм.
Облачность - указаны через наклонную черту общая и нижняя облачность в баллах и высота нижней границы облаков в метрах; квадратными скобками обозначены формы облаков: Ci - перистые, Cs - перисто-слоистые, Cc - перисто-кучевые, Ac - высококучевые, As - высокослоистые, Sc - слоисто-кучевые, Ns - слоисто-дождевые, Cu - кучевые, Cb - кучево-дождевые. Подробнее классификацию облаков см. в Атласе облаков (PDF).
T - Температура воздуха - температура, измеренная на высоте 2 м над землей.
Td - Температура точки росы - температура, при понижении до которой содержащийся в воздухе водяной пар достигнет насыщения.
f - Относительная влажность воздуха - влажноcть воздуха, измеренная на высоте 2 м над землей.
Te - Эффективная температура - температура, которую ощущает одетый по сезону человек в тени. Характеристика душности погоды. При расчете учитывается влияние влажности воздуха и скорости ветра на теплоощущения человека.
Tes - Эффективная температура на солнце - температура, которую ощущает человек, с поправкой на солнечный нагрев. Характеристика знойности погоды. Зависит от высоты солнца над горизонтом, облачности и скорости ветра. Ночью, в пасмурную погоду, а также при ветре 12 м/с и более поправка равна нулю.
P - Атмосферное давление - приведенное к уровню моря атмосферное давление.
Po - Атмосферное давление - измеренное на уровне метеостанции атмосферное давление.
Tmin - Минимальная температура - минимум температуры воздуха на высоте 2 м над землей.
Tmax - Максимальная температура - максимум температуры воздуха на высоте 2 м над землей.
R - Количество осадков - Количество выпавших осадков за период времени, мм. При наведении курсора мыши на число - период времени, за который выпало указанное количество осадков.
R24 - Количество осадков - Количество выпавших осадков за 24 часа, мм.
S - Снежный покров - Высота снежного покрова, см. При наведении курсора мыши на число - состояние снежного покрова и степень покрытия местности в баллах.